Regional Weather Roundup
Issued by NWS

Home | Current Version | Previous Version | Text Only | Print | Product List | Glossary On
Versions: 1 2 3 4 5 6 7 8 9 10 11 12 13 14 15 16 17 18 19 20 21 22 23 24 25 26 27 28 29 30 31 32 33 34 35 36 37 38 39 40 41 42 43 44 45 46 47 48 49 50
000
ASUS43 KDTX 080010
RWRMI
MICHIGAN HOURLY REGIONAL WEATHER ROUNDUP
NATIONAL WEATHER SERVICE DETROIT/PONTIAC MI
800 PM EDT TUE APR 07 2020

NOTE: "FAIR" INDICATES FEW OR NO CLOUDS BELOW 12,000 FEET WITH NO
SIGNIFICANT WEATHER AND/OR OBSTRUCTION TO VISIBILITY.

MIZ047>049-052>055-059>063-066>070-074>076-081>083-080100-
SOUTHEAST LOWER MICHIGAN

CITY           SKY/WX    TMP DP  RH WIND       PRES   REMARKS
ADRIAN         FAIR      68  56  65 SW7       29.60F
6HR MIN TEMP:  65; 6HR MAX TEMP:  73;

ALMA           FAIR      57  49  75 NE15      29.59S
6HR MIN TEMP:  52; 6HR MAX TEMP:  65;

ANN ARBOR      FAIR      67  54  63 W7        29.59F
BAD AXE        HVY RAIN  48  47  97 CALM      29.66R
6HR MIN TEMP:  46; 6HR MAX TEMP:  50;

CARO           LGT RAIN  54  49  83 NE5       29.57F
DETROIT CITY   FAIR      54  50  86 E7        29.62F FOG
6HR MIN TEMP:  49; 6HR MAX TEMP:  60;

DETROIT        MOCLDY    63  54  72 SE5       29.61F
6HR MIN TEMP:  56; 6HR MAX TEMP:  71;

FLINT          FAIR      61  52  72 E8        29.58F
6HR MIN TEMP:  53; 6HR MAX TEMP:  71;

GROSSE ILE     FAIR      53  50  92 S3        29.60F FOG
6HR MIN TEMP:  51; 6HR MAX TEMP:  60;

HILLSDALE      FAIR      69  55  61 SW7       29.59F
6HR MIN TEMP:  65; 6HR MAX TEMP:  73;

HOWELL         MOCLDY    67  55  66 CALM      29.59F
6HR MIN TEMP:  60; 6HR MAX TEMP:  72; 6HR PCP:  0.01;


CITY           SKY/WX    TMP DP  RH WIND       PRES   REMARKS
JACKSON        FAIR      69  54  58 S9        29.57F
6HR MIN TEMP:  65; 6HR MAX TEMP:  73; 6HR PCP: TRACE;

LAMBERTVILLE   FAIR      70  57  62 SW6       29.61F
6HR MIN TEMP:  66; 6HR MAX TEMP:  73;

LANSING        TSTM      63  50  62 SW13G25   29.56F
6HR MIN TEMP:  63; 6HR MAX TEMP:  72; 6HR PCP: TRACE;

LAPEER         FAIR      55  50  86 E6        29.60F
6HR MIN TEMP:  46; 6HR MAX TEMP:  60;

MASON          CLOUDY    68  53  60 N10       29.58F
6HR MIN TEMP:  65; 6HR MAX TEMP:  71;

MONROE         FAIR      68  58  68 SW5       29.59F
6HR MIN TEMP:  61; 6HR MAX TEMP:  71;

MT. CLEMENS    CLOUDY    51  51 100 E5        29.60F FOG
6HR MIN TEMP:  45; 6HR MAX TEMP:  52;

PONTIAC        CLOUDY    58  51  78 SE5       29.60F
6HR MIN TEMP:  50; 6HR MAX TEMP:  63;

PORT HOPE        N/A     44  41  89 SE5       29.64F
6HR MIN TEMP:  42; 6HR MAX TEMP:  50; 6HR PCP:  0.02;

PORT HURON     CLOUDY    50  46  87 E5        29.64F
TRI CITIES     TSTM      49  33  54 E10       29.62S
6HR MIN TEMP:  48; 6HR MAX TEMP:  57; 6HR PCP:  0.16;

MIDLAND        CLOUDY    50  47  87 SE7       29.58F FOG
6HR MIN TEMP:  47; 6HR MAX TEMP:  56; 6HR PCP:  0.07;

TROY           FAIR      55  53  94 E6        29.63F FOG
SAGINAW HB     CLOUDY    52  48  87 N24G32    29.65R
$$
MIZ043>046-050>051-056>058-064>065-071>073-077>080-080100-
SOUTHWEST LOWER MICHIGAN

CITY           SKY/WX    TMP DP  RH WIND       PRES   REMARKS
BATTLE CREEK   FAIR      71  57  61 SW9       29.59F
6HR MIN TEMP:  67; 6HR MAX TEMP:  75;

BENTON HARBOR  FAIR      74  57  55 SW13G24   29.57F
6HR MIN TEMP:  68; 6HR MAX TEMP:  76;

BIG RAPIDS     CLOUDY    59  55  88 SE6       29.59F FOG
COLDWATER      FAIR      70  57  64 S8        29.59F
FREMONT        MOCLDY    61  59  94 S3        29.56R FOG
6HR MIN TEMP:  58; 6HR MAX TEMP:  68;

HOLLAND        CLOUDY    72  56  57 SW12      29.56F THUNDER
6HR MIN TEMP:  68; 6HR MAX TEMP:  72;

GRAND RAPIDS   TSTM      65  59  81 NW10      29.56F
6HR MIN TEMP:  66; 6HR MAX TEMP:  75; 6HR PCP:  0.04;

IONIA          RAIN      62  55  76 SW10      29.59S
6HR MIN TEMP:  62; 6HR MAX TEMP:  73; 6HR PCP:  0.06;

KALAMAZOO      FAIR      73  56  54 SW9       29.58F
6HR MIN TEMP:  68; 6HR MAX TEMP:  76;

LUDINGTON      CLOUDY    55  52  90 CALM      29.58R
6HR MIN TEMP:  52; 6HR MAX TEMP:  63;

MARSHALL       FAIR      71  54  56 SW7       29.58F
6HR MIN TEMP:  67; 6HR MAX TEMP:  73;

MOUNT PLEASANT HVY RAIN  54  49  82 CALM      29.62F
6HR MIN TEMP:  49; 6HR MAX TEMP:  59; 6HR PCP:  0.01;

MUSKEGON       MOCLDY    60  52  74 SW6G20    29.56R
6HR MIN TEMP:  61; 6HR MAX TEMP:  66; 6HR PCP:  0.18;

SOUTH HAVEN    MOCLDY    73  55  52 SW15      29.57R
$$
MIZ016>042-080100-
NORTHERN LOWER MICHIGAN

CITY           SKY/WX    TMP DP  RH WIND       PRES   REMARKS
ALPENA         CLOUDY    40  38  93 E10       29.65F WCI  33
6HR MIN TEMP:  40; 6HR MAX TEMP:  43; 6HR PCP:  0.12;

BEAVER ISLAND  CLOUDY    41  37  86 E3        29.63F
6HR MIN TEMP:  40; 6HR MAX TEMP:  43;

BELLAIRE       CLOUDY    48  46  93 N3        29.63R
6HR MIN TEMP:  46; 6HR MAX TEMP:  55;

CADILLAC       CLOUDY   N/A N/A N/A CALM      29.56F FOG
CHARLEVOIX     CLOUDY    43  41  91 CALM      29.62S
6HR MIN TEMP:  43; 6HR MAX TEMP:  45;

FRANKFORT      LGT RAIN  49  48  97 CALM      29.60S
GAYLORD        FOG       43  43 100 VRB5      29.62S VSB 1/4
6HR MIN TEMP:  43; 6HR MAX TEMP:  49; 6HR PCP:  0.25;

GRAYLING       MOCLDY    48  48 100 N5        29.60F FOG
6HR MIN TEMP:  48; 6HR MAX TEMP:  55; 6HR PCP:  0.15;

HARBOR SPRINGS CLOUDY    42  41  99 E7        29.62S
HOUGHTON LAKE  CLOUDY    49  47  93 CALM      29.61R FOG
6HR MIN TEMP:  49; 6HR MAX TEMP:  53; 6HR PCP:  0.04;

MANISTEE       CLOUDY    53  51  93 NW8       29.59R FOG
OSCODA         MIX PCPN  40  40  99 E12       29.58F WCI  33
6HR MIN TEMP:  40; 6HR MAX TEMP:  50; 6HR PCP:  0.01;

PELLSTON       CLOUDY    42  38  85 CALM      29.64F
6HR MIN TEMP:  41; 6HR MAX TEMP:  42; 6HR PCP:  0.13;

ROGERS CITY    CLOUDY    41  38  91 SE8       29.65F FOG
TRAVERSE CITY  TSTM      49  46  90 CALM      29.58F
6HR MIN TEMP:  45; 6HR MAX TEMP:  62; 6HR PCP:  0.24;

$$
MIZ007>008-015-080100-
EASTERN UPPER MICHIGAN

CITY           SKY/WX    TMP DP  RH WIND       PRES   REMARKS
KINROSS        CLOUDY    38  36  92 SE9       29.65F WCI  31
6HR MIN TEMP:  38; 6HR MAX TEMP:  40; 6HR PCP:  0.06;

MACKINAC ISLAN CLOUDY    36  36 100 E9        29.64F WCI  29
6HR MIN TEMP:  36; 6HR MAX TEMP:  37; 6HR PCP:  0.01;

NEWBERRY       CLOUDY    39  37  93 CALM      29.63S
6HR MIN TEMP:  39; 6HR MAX TEMP:  40; 6HR PCP:  0.01;

S. S. MARIE    LGT RAIN  40  36  86 SE7       29.66S FOG
6HR MIN TEMP:  39; 6HR MAX TEMP:  41; 6HR PCP:  0.08;

MUNISING         N/A     46  35  65 S5        29.61F
6HR MIN TEMP:  44; 6HR MAX TEMP:  47;

$$
MIZ004>006-011>014-085-080100-
CENTRAL UPPER MICHIGAN

CITY           SKY/WX    TMP DP  RH WIND       PRES   REMARKS
MANISTIQUE     CLOUDY    42  37  82 CALM      29.63S
6HR MIN TEMP:  40; 6HR MAX TEMP:  45;

ESCANABA       CLOUDY    44  41  89 CALM      29.65R
6HR MIN TEMP:  40; 6HR MAX TEMP:  44; 6HR PCP:  0.04;

MENOMINEE      CLOUDY    40  38  93 E6        29.65R
6HR MIN TEMP:  40; 6HR MAX TEMP:  47; 6HR PCP:  0.05;

SAWYER-GWINN   CLOUDY    45  43  93 S5        29.61S FOG
$$
MIZ001>003-009>011-084-080100-
WESTERN UPPER MICHIGAN

CITY           SKY/WX    TMP DP  RH WIND       PRES   REMARKS
IRON MOUNTAIN  MOCLDY    48  45  89 CALM      29.61R
6HR MIN TEMP:  41; 6HR MAX TEMP:  51; 6HR PCP:  0.01;

HOUGHTON       CLOUDY    39  36  89 W12       29.63R WCI  32
6HR MIN TEMP:  39; 6HR MAX TEMP:  44; 6HR PCP: TRACE;

COPPER HARBOR    N/A     40  37  89 N10G18    29.61R WCI  33
6HR MIN TEMP:  38; 6HR MAX TEMP:  42; 6HR PCP:  0.06;

IRONWOOD       FAIR      50  42  74 E3        29.66S
6HR MIN TEMP:  49; 6HR MAX TEMP:  55;

$$

ABBREVIATIONS USED IN REMARKS
   TC - TEMPERATURE IN CELSIUS
  WCI - WIND CHILL INDEX
   HX - HEAT INDEX
  VSB - VISIBILITY




USA.gov is the U.S. government's official web portal to all federal, state and local government web resources and services.